Time,TemperatureF,DewpointF,PressureIn,WindDirection,WindDirectionDegrees,WindSpeedMPH,WindSpeedGustMPH,Humidity,HourlyPrecipIn,Conditions,Clouds,dailyrainin,SoftwareType,DateUTC
2013-03-06 00:02:00,19.3,12.4,30.22,East,92,0.0,0.0,74,0.00,,,0.00,Wunderground v.1.13,2013-03-06 07:02:00,
2013-03-06 00:12:00,19.3,12.7,30.22,East,92,0.0,0.0,75,0.00,,,0.00,Wunderground v.1.13,2013-03-06 07:12:00,
2013-03-06 00:22:00,19.1,12.2,30.22,East,92,0.0,0.0,74,0.00,,,0.00,Wunderground v.1.13,2013-03-06 07:22:00,
2013-03-06 00:32:00,18.9,12.3,30.21,East,92,0.0,0.0,75,0.00,,,0.00,Wunderground v.1.13,2013-03-06 07:32:00,
2013-03-06 00:42:00,18.6,12.0,30.21,East,92,0.0,0.0,75,0.00,,,0.00,Wunderground v.1.13,2013-03-06 07:42:00,
2013-03-06 00:52:00,18.3,11.7,30.20,East,92,0.0,0.0,75,0.00,,,0.00,Wunderground v.1.13,2013-03-06 07:52:00,
2013-03-06 01:02:00,18.0,11.4,30.20,East,92,0.0,0.0,75,0.00,,,0.00,Wunderground v.1.13,2013-03-06 08:02:00,
2013-03-06 01:12:00,17.7,11.4,30.20,East,92,0.0,0.0,76,0.00,,,0.00,Wunderground v.1.13,2013-03-06 08:12:00,
2013-03-06 01:22:00,17.7,11.4,30.20,East,92,0.0,0.0,76,0.00,,,0.00,Wunderground v.1.13,2013-03-06 08:22:00,
2013-03-06 01:32:00,17.8,11.5,30.20,East,92,0.0,0.0,76,0.00,,,0.00,Wunderground v.1.13,2013-03-06 08:32:00,
2013-03-06 01:42:00,17.7,11.4,30.20,East,92,0.0,0.0,76,0.00,,,0.00,Wunderground v.1.13,2013-03-06 08:42:00,
2013-03-06 01:52:00,17.5,10.9,30.19,East,92,0.0,0.0,75,0.00,,,0.00,Wunderground v.1.13,2013-03-06 08:52:00,
2013-03-06 02:02:00,17.5,10.9,30.18,East,92,0.0,0.0,75,0.00,,,0.00,Wunderground v.1.13,2013-03-06 09:02:00,
2013-03-06 02:12:00,17.2,10.3,30.18,East,92,0.0,0.0,74,0.00,,,0.00,Wunderground v.1.13,2013-03-06 09:12:00,
2013-03-06 02:22:00,17.0,10.1,30.18,East,92,0.0,0.0,74,0.00,,,0.00,Wunderground v.1.13,2013-03-06 09:22:00,
2013-03-06 02:32:00,16.9,10.0,30.18,East,92,0.0,0.0,74,0.00,,,0.00,Wunderground v.1.13,2013-03-06 09:32:00,
2013-03-06 02:42:00,16.9,10.0,30.18,East,92,0.0,0.0,74,0.00,,,0.00,Wunderground v.1.13,2013-03-06 09:42:00,
2013-03-06 02:52:00,16.4,9.6,30.17,East,92,0.0,0.0,74,0.00,,,0.00,Wunderground v.1.13,2013-03-06 09:52:00,
2013-03-06 03:02:00,16.6,9.8,30.17,East,92,0.0,0.0,74,0.00,,,0.00,Wunderground v.1.13,2013-03-06 10:02:00,
2013-03-06 03:12:00,16.4,9.6,30.17,East,92,0.0,0.0,74,0.00,,,0.00,Wunderground v.1.13,2013-03-06 10:12:00,
2013-03-06 03:22:00,15.9,9.1,30.17,East,92,0.0,0.0,74,0.00,,,0.00,Wunderground v.1.13,2013-03-06 10:22:00,
2013-03-06 03:32:00,15.7,9.2,30.16,East,92,0.0,0.0,75,0.00,,,0.00,Wunderground v.1.13,2013-03-06 10:32:00,
2013-03-06 03:42:00,15.7,9.2,30.16,East,92,0.0,0.0,75,0.00,,,0.00,Wunderground v.1.13,2013-03-06 10:42:00,
2013-03-06 03:52:00,15.6,9.1,30.16,East,92,0.0,0.0,75,0.00,,,0.00,Wunderground v.1.13,2013-03-06 10:52:00,
2013-03-06 04:02:00,15.4,8.9,30.16,East,92,0.0,0.0,75,0.00,,,0.00,Wunderground v.1.13,2013-03-06 11:02:00,
2013-03-06 04:12:00,15.3,8.8,30.16,East,92,0.0,0.0,75,0.00,,,0.00,Wunderground v.1.13,2013-03-06 11:12:00,
2013-03-06 04:22:00,15.4,8.9,30.16,East,92,0.0,0.0,75,0.00,,,0.00,Wunderground v.1.13,2013-03-06 11:22:00,
2013-03-06 04:32:00,15.4,8.9,30.16,East,92,0.0,0.0,75,0.00,,,0.00,Wunderground v.1.13,2013-03-06 11:32:00,
2013-03-06 04:42:00,15.3,8.8,30.16,East,92,0.0,0.0,75,0.00,,,0.00,Wunderground v.1.13,2013-03-06 11:42:00,
2013-03-06 04:52:00,15.1,8.6,30.16,East,92,0.0,0.0,75,0.00,,,0.00,Wunderground v.1.13,2013-03-06 11:52:00,
2013-03-06 05:02:00,15.1,8.9,30.16,East,92,0.0,0.0,76,0.00,,,0.00,Wunderground v.1.13,2013-03-06 12:02:00,
2013-03-06 05:12:00,15.3,8.8,30.16,East,92,0.0,0.0,75,0.00,,,0.00,Wunderground v.1.13,2013-03-06 12:12:00,
2013-03-06 05:22:00,15.3,8.8,30.15,East,92,0.0,0.0,75,0.00,,,0.00,Wunderground v.1.13,2013-03-06 12:22:00,
2013-03-06 05:32:00,15.1,8.3,30.15,East,92,0.0,0.0,74,0.00,,,0.00,Wunderground v.1.13,2013-03-06 12:32:00,
2013-03-06 05:42:00,14.9,8.1,30.15,East,92,0.0,1.0,74,0.00,,,0.00,Wunderground v.1.13,2013-03-06 12:42:00,
2013-03-06 05:52:00,14.6,7.8,30.15,East,92,0.0,0.0,74,0.00,,,0.00,Wunderground v.1.13,2013-03-06 12:52:00,
2013-03-06 06:02:00,14.5,8.0,30.14,East,92,0.0,0.0,75,0.00,,,0.00,Wunderground v.1.13,2013-03-06 13:02:00,
2013-03-06 06:12:00,14.5,8.0,30.14,East,92,0.0,0.0,75,0.00,,,0.00,Wunderground v.1.13,2013-03-06 13:12:00,
2013-03-06 06:22:00,14.3,7.8,30.14,East,92,0.0,0.0,75,0.00,,,0.00,Wunderground v.1.13,2013-03-06 13:22:00,
2013-03-06 06:32:00,14.5,8.0,30.13,East,92,0.0,0.0,75,0.00,,,0.00,Wunderground v.1.13,2013-03-06 13:32:00,
2013-03-06 06:42:00,14.3,7.8,30.13,East,92,0.0,0.0,75,0.00,,,0.00,Wunderground v.1.13,2013-03-06 13:42:00,
2013-03-06 06:52:00,14.1,7.9,30.14,East,92,0.0,0.0,76,0.00,,,0.00,Wunderground v.1.13,2013-03-06 13:52:00,
2013-03-06 07:02:00,14.1,7.9,30.13,East,92,0.0,0.0,76,0.00,,,0.00,Wunderground v.1.13,2013-03-06 14:02:00,
2013-03-06 07:12:00,14.5,8.3,30.13,East,92,0.0,0.0,76,0.00,,,0.00,Wunderground v.1.13,2013-03-06 14:12:00,
2013-03-06 07:22:00,15.3,9.4,30.12,East,92,0.0,0.0,77,0.00,,,0.00,Wunderground v.1.13,2013-03-06 14:22:00,
2013-03-06 07:32:00,16.1,9.9,30.12,East,92,0.0,0.0,76,0.00,,,0.00,Wunderground v.1.13,2013-03-06 14:32:00,
2013-03-06 07:42:00,17.2,10.9,30.12,East,92,0.0,0.0,76,0.00,,,0.00,Wunderground v.1.13,2013-03-06 14:42:00,
2013-03-06 07:52:00,18.5,11.9,30.11,East,92,0.0,0.0,75,0.00,,,0.00,Wunderground v.1.13,2013-03-06 14:52:00,
2013-03-06 08:02:00,19.4,11.8,30.10,East,92,0.0,0.0,72,0.00,,,0.00,Wunderground v.1.13,2013-03-06 15:02:00,
2013-03-06 08:12:00,20.7,11.5,30.10,East,92,0.0,1.0,67,0.00,,,0.00,Wunderground v.1.13,2013-03-06 15:12:00,
2013-03-06 08:22:00,20.5,11.3,30.10,East,92,1.0,1.0,67,0.00,,,0.00,Wunderground v.1.13,2013-03-06 15:22:00,
2013-03-06 08:32:00,21.0,11.8,30.10,East,92,1.0,2.0,67,0.00,,,0.00,Wunderground v.1.13,2013-03-06 15:32:00,
2013-03-06 08:42:00,21.3,12.0,30.10,East,92,2.0,2.0,67,0.00,,,0.00,Wunderground v.1.13,2013-03-06 15:42:00,
2013-03-06 08:52:00,21.8,12.9,30.10,East,92,1.0,1.0,68,0.00,,,0.00,Wunderground v.1.13,2013-03-06 15:52:00,
2013-03-06 09:02:00,23.0,13.3,30.09,East,92,0.0,0.0,66,0.00,,,0.00,Wunderground v.1.13,2013-03-06 16:02:00,
2013-03-06 09:12:00,24.7,14.2,30.09,East,92,0.0,1.0,64,0.00,,,0.00,Wunderground v.1.13,2013-03-06 16:12:00,
2013-03-06 09:22:00,25.8,14.2,30.08,East,92,0.0,0.0,61,0.00,,,0.00,Wunderground v.1.13,2013-03-06 16:22:00,
2013-03-06 09:32:00,26.5,14.1,30.08,East,92,0.0,0.0,59,0.00,,,0.00,Wunderground v.1.13,2013-03-06 16:32:00,
2013-03-06 09:42:00,26.3,14.3,30.08,East,92,0.0,0.0,60,0.00,,,0.00,Wunderground v.1.13,2013-03-06 16:42:00,
2013-03-06 09:52:00,27.8,14.9,30.07,East,92,0.0,0.0,58,0.00,,,0.00,Wunderground v.1.13,2013-03-06 16:52:00,
2013-03-06 10:02:00,28.7,14.6,30.06,East,92,0.0,0.0,55,0.00,,,0.00,Wunderground v.1.13,2013-03-06 17:02:00,
2013-03-06 10:12:00,29.3,14.3,30.06,East,92,1.0,1.0,53,0.00,,,0.00,Wunderground v.1.13,2013-03-06 17:12:00,
2013-03-06 10:22:00,30.3,14.8,30.04,East,92,1.0,1.0,52,0.00,,,0.00,Wunderground v.1.13,2013-03-06 17:22:00,
2013-03-06 10:32:00,30.6,15.5,30.03,East,92,1.0,4.0,53,0.00,,,0.00,Wunderground v.1.13,2013-03-06 17:32:00,
2013-03-06 10:42:00,30.6,15.5,30.03,East,92,2.0,5.0,53,0.00,,,0.00,Wunderground v.1.13,2013-03-06 17:42:00,
2013-03-06 10:52:00,31.7,15.6,30.02,East,92,1.0,1.0,51,0.00,,,0.00,Wunderground v.1.13,2013-03-06 17:52:00,
2013-03-06 11:02:00,33.2,15.6,30.01,East,92,1.0,1.0,48,0.00,,,0.00,Wunderground v.1.13,2013-03-06 18:02:00,
2013-03-06 11:12:00,33.9,15.3,30.01,East,94,1.0,1.0,46,0.00,,,0.00,Wunderground v.1.13,2013-03-06 18:12:00,
2013-03-06 11:22:00,33.0,15.4,30.00,ESE,103,2.0,4.0,48,0.00,,,0.00,Wunderground v.1.13,2013-03-06 18:22:00,
2013-03-06 11:32:00,34.5,16.3,29.98,ESE,103,1.0,2.0,47,0.00,,,0.00,Wunderground v.1.13,2013-03-06 18:32:00,
2013-03-06 11:42:00,35.5,16.7,29.98,ESE,103,1.0,1.0,46,0.00,,,0.00,Wunderground v.1.13,2013-03-06 18:42:00,
2013-03-06 11:52:00,36.1,17.3,29.98,ESE,102,1.0,1.0,46,0.00,,,0.00,Wunderground v.1.13,2013-03-06 18:52:00,
2013-03-06 12:02:00,36.4,16.0,29.96,ESE,102,0.0,0.0,43,0.00,,,0.00,Wunderground v.1.13,2013-03-06 19:02:00,
2013-03-06 12:12:00,36.4,16.5,29.96,ESE,102,0.0,0.0,44,0.00,,,0.00,Wunderground v.1.13,2013-03-06 19:12:00,
2013-03-06 12:22:00,36.5,16.1,29.95,East,101,1.0,1.0,43,0.00,,,0.00,Wunderground v.1.13,2013-03-06 19:22:00,
2013-03-06 12:32:00,37.1,16.6,29.94,East,101,0.0,0.0,43,0.00,,,0.00,Wunderground v.1.13,2013-03-06 19:32:00,
2013-03-06 12:42:00,37.3,17.4,29.94,East,101,0.0,0.0,44,0.00,,,0.00,Wunderground v.1.13,2013-03-06 19:42:00,
2013-03-06 12:52:00,39.3,18.1,29.93,East,101,0.0,0.0,42,0.00,,,0.00,Wunderground v.1.13,2013-03-06 19:52:00,
2013-03-06 13:02:00,39.7,17.3,29.92,East,101,0.0,1.0,40,0.00,,,0.00,Wunderground v.1.13,2013-03-06 20:02:00,
2013-03-06 13:12:00,40.3,18.4,29.92,East,101,0.0,0.0,41,0.00,,,0.00,Wunderground v.1.13,2013-03-06 20:12:00,
2013-03-06 13:22:00,40.7,18.2,29.91,East,101,0.0,0.0,40,0.00,,,0.00,Wunderground v.1.13,2013-03-06 20:22:00,
2013-03-06 13:32:00,41.3,18.8,29.91,East,101,1.0,1.0,40,0.00,,,0.00,Wunderground v.1.13,2013-03-06 20:32:00,
2013-03-06 13:42:00,42.0,19.4,29.91,East,101,0.0,0.0,40,0.00,,,0.00,Wunderground v.1.13,2013-03-06 20:42:00,
2013-03-06 13:52:00,40.7,19.4,29.89,ESE,111,2.0,2.0,42,0.00,,,0.00,Wunderground v.1.13,2013-03-06 20:52:00,
2013-03-06 14:02:00,41.1,19.7,29.88,ESE,111,2.0,2.0,42,0.00,,,0.00,Wunderground v.1.13,2013-03-06 21:02:00,
2013-03-06 14:12:00,39.4,19.3,29.88,ESE,115,3.0,5.0,44,0.00,,,0.00,Wunderground v.1.13,2013-03-06 21:12:00,
2013-03-06 14:22:00,39.8,19.1,29.87,ESE,115,3.0,4.0,43,0.00,,,0.00,Wunderground v.1.13,2013-03-06 21:22:00,
2013-03-06 14:32:00,41.0,19.6,29.84,ESE,119,3.0,5.0,42,0.00,,,0.00,Wunderground v.1.13,2013-03-06 21:32:00,
2013-03-06 14:42:00,42.4,19.8,29.84,ESE,122,2.0,4.0,40,0.00,,,0.00,Wunderground v.1.13,2013-03-06 21:42:00,
2013-03-06 14:52:00,42.7,19.4,29.84,SE,132,3.0,4.0,39,0.00,,,0.00,Wunderground v.1.13,2013-03-06 21:52:00,
2013-03-06 15:02:00,42.8,20.1,29.84,SE,139,2.0,2.0,40,0.00,,,0.00,Wunderground v.1.13,2013-03-06 22:02:00,
2013-03-06 15:12:00,42.6,20.5,29.84,SW,230,4.0,4.0,41,0.00,,,0.00,Wunderground v.1.13,2013-03-06 22:12:00,
2013-03-06 15:22:00,42.3,20.8,29.84,West,259,4.0,4.0,42,0.00,,,0.00,Wunderground v.1.13,2013-03-06 22:22:00,
2013-03-06 15:32:00,42.8,20.1,29.83,WSW,244,4.0,4.0,40,0.00,,,0.00,Wunderground v.1.13,2013-03-06 22:32:00,
2013-03-06 15:42:00,43.3,20.6,29.83,WSW,248,3.0,5.0,40,0.00,,,0.00,Wunderground v.1.13,2013-03-06 22:42:00,
2013-03-06 15:52:00,43.8,21.0,29.82,WSW,251,2.0,2.0,40,0.00,,,0.00,Wunderground v.1.13,2013-03-06 22:52:00,
2013-03-06 16:02:00,44.3,20.9,29.82,WSW,257,3.0,4.0,39,0.00,,,0.00,Wunderground v.1.13,2013-03-06 23:02:00,
2013-03-06 16:12:00,44.4,21.6,29.82,WSW,257,3.0,5.0,40,0.00,,,0.00,Wunderground v.1.13,2013-03-06 23:12:00,
2013-03-06 16:22:00,44.0,21.2,29.82,WSW,257,3.0,3.0,40,0.00,,,0.00,Wunderground v.1.13,2013-03-06 23:22:00,
2013-03-06 16:32:00,44.8,20.1,29.81,WSW,257,1.0,3.0,37,0.00,,,0.00,Wunderground v.1.13,2013-03-06 23:32:00,
2013-03-06 16:42:00,44.8,21.9,29.81,WSW,257,1.0,1.0,40,0.00,,,0.00,Wunderground v.1.13,2013-03-06 23:42:00,
2013-03-06 16:52:00,44.6,21.7,29.81,WSW,257,1.0,1.0,40,0.00,,,0.00,Wunderground v.1.13,2013-03-06 23:52:00,
2013-03-06 17:02:00,44.6,21.7,29.81,WSW,257,1.0,1.0,40,0.00,,,0.00,Wunderground v.1.13,2013-03-07 00:02:00,
2013-03-06 17:12:00,42.8,22.4,29.81,WSW,253,3.0,5.0,44,0.00,,,0.00,Wunderground v.1.13,2013-03-07 00:12:00,
2013-03-06 17:22:00,41.6,21.8,29.81,WSW,252,3.0,5.0,45,0.00,,,0.00,Wunderground v.1.13,2013-03-07 00:22:00,
2013-03-06 17:32:00,41.4,22.1,29.81,WSW,252,1.0,1.0,46,0.00,,,0.00,Wunderground v.1.13,2013-03-07 00:32:00,
2013-03-06 17:42:00,40.6,22.4,29.81,WSW,252,1.0,2.0,48,0.00,,,0.00,Wunderground v.1.13,2013-03-07 00:42:00,
2013-03-06 17:52:00,39.3,22.2,29.81,WSW,252,1.0,2.0,50,0.00,,,0.00,Wunderground v.1.13,2013-03-07 00:52:00,
2013-03-06 18:02:00,38.7,21.6,29.81,WSW,252,1.0,1.0,50,0.00,,,0.00,Wunderground v.1.13,2013-03-07 01:02:00,
2013-03-06 18:12:00,38.0,21.5,29.81,WSW,252,2.0,3.0,51,0.00,,,0.00,Wunderground v.1.13,2013-03-07 01:12:00,
2013-03-06 18:22:00,37.7,22.1,29.81,WSW,252,0.0,0.0,53,0.00,,,0.00,Wunderground v.1.13,2013-03-07 01:22:00,
2013-03-06 18:32:00,36.7,22.0,29.81,WSW,252,0.0,0.0,55,0.00,,,0.00,Wunderground v.1.13,2013-03-07 01:32:00,
2013-03-06 18:42:00,36.3,21.7,29.81,WSW,252,0.0,0.0,55,0.00,,,0.00,Wunderground v.1.13,2013-03-07 01:42:00,
2013-03-06 18:52:00,35.8,21.2,29.82,WSW,252,1.0,1.0,55,0.00,,,0.00,Wunderground v.1.13,2013-03-07 01:52:00,
2013-03-06 19:02:00,35.5,21.3,29.82,WSW,252,0.0,0.0,56,0.00,,,0.00,Wunderground v.1.13,2013-03-07 02:02:00,
2013-03-06 19:12:00,35.4,21.2,29.82,WSW,252,0.0,0.0,56,0.00,,,0.00,Wunderground v.1.13,2013-03-07 02:12:00,
2013-03-06 19:22:00,35.1,21.8,29.82,WSW,252,0.0,0.0,58,0.00,,,0.00,Wunderground v.1.13,2013-03-07 02:22:00,
2013-03-06 19:32:00,34.2,21.7,29.83,WSW,252,0.0,0.0,60,0.00,,,0.00,Wunderground v.1.13,2013-03-07 02:32:00,
2013-03-06 19:42:00,33.4,21.8,29.83,WSW,252,0.0,0.0,62,0.00,,,0.00,Wunderground v.1.13,2013-03-07 02:42:00,
2013-03-06 19:52:00,33.0,22.5,29.84,WSW,252,1.0,1.0,65,0.00,,,0.00,Wunderground v.1.13,2013-03-07 02:52:00,
2013-03-06 20:02:00,34.2,22.1,29.84,West,259,2.0,2.0,61,0.00,,,0.00,Wunderground v.1.13,2013-03-07 03:02:00,
2013-03-06 20:12:00,35.2,22.3,29.84,West,260,2.0,3.0,59,0.00,,,0.00,Wunderground v.1.13,2013-03-07 03:12:00,
2013-03-06 20:22:00,35.1,22.2,29.84,West,261,0.0,0.0,59,0.00,,,0.00,Wunderground v.1.13,2013-03-07 03:22:00,
2013-03-06 20:32:00,34.8,21.9,29.84,West,261,2.0,4.0,59,0.00,,,0.00,Wunderground v.1.13,2013-03-07 03:32:00,
2013-03-06 20:42:00,34.8,21.9,29.84,West,261,0.0,0.0,59,0.00,,,0.00,Wunderground v.1.13,2013-03-07 03:42:00,
2013-03-06 20:52:00,34.3,21.8,29.84,West,261,0.0,1.0,60,0.00,,,0.00,Wunderground v.1.13,2013-03-07 03:52:00,
2013-03-06 21:02:00,33.7,21.7,29.85,West,261,0.0,0.0,61,0.00,,,0.00,Wunderground v.1.13,2013-03-07 04:02:00,
2013-03-06 21:12:00,33.0,22.1,29.85,West,261,0.0,0.0,64,0.00,,,0.00,Wunderground v.1.13,2013-03-07 04:12:00,
2013-03-06 21:22:00,32.4,21.9,29.86,West,261,0.0,0.0,65,0.00,,,0.00,Wunderground v.1.13,2013-03-07 04:22:00,
2013-03-06 21:32:00,32.0,21.9,29.85,West,261,1.0,1.0,66,0.00,,,0.00,Wunderground v.1.13,2013-03-07 04:32:00,
2013-03-06 21:42:00,31.7,21.6,29.85,West,261,0.0,2.0,66,0.00,,,0.00,Wunderground v.1.13,2013-03-07 04:42:00,
2013-03-06 21:52:00,31.1,21.8,29.84,West,261,0.0,0.0,68,0.00,,,0.00,Wunderground v.1.13,2013-03-07 04:52:00,
2013-03-06 22:02:00,30.8,21.5,29.84,West,261,0.0,0.0,68,0.00,,,0.00,Wunderground v.1.13,2013-03-07 05:02:00,
2013-03-06 22:12:00,29.6,21.0,29.84,West,261,1.0,1.0,70,0.00,,,0.00,Wunderground v.1.13,2013-03-07 05:12:00,
2013-03-06 22:22:00,29.3,21.4,29.86,West,261,0.0,0.0,72,0.00,,,0.00,Wunderground v.1.13,2013-03-07 05:22:00,
2013-03-06 22:32:00,29.6,21.3,29.87,West,261,1.0,1.0,71,0.00,,,0.00,Wunderground v.1.13,2013-03-07 05:32:00,
2013-03-06 22:42:00,29.3,20.7,29.87,West,261,1.0,1.0,70,0.00,,,0.00,Wunderground v.1.13,2013-03-07 05:42:00,
2013-03-06 22:52:00,29.2,20.6,29.86,West,261,1.0,2.0,70,0.00,,,0.00,Wunderground v.1.13,2013-03-07 05:52:00,
2013-03-06 23:02:00,28.9,20.0,29.86,West,261,0.0,0.0,69,0.00,,,0.00,Wunderground v.1.13,2013-03-07 06:02:00,
2013-03-06 23:12:00,28.4,20.2,29.86,West,261,0.0,0.0,71,0.00,,,0.00,Wunderground v.1.13,2013-03-07 06:12:00,
2013-03-06 23:22:00,28.6,20.4,29.88,West,261,1.0,1.0,71,0.00,,,0.00,Wunderground v.1.13,2013-03-07 06:22:00,
2013-03-06 23:32:00,28.4,20.2,29.88,West,260,1.0,1.0,71,0.00,,,0.00,Wunderground v.1.13,2013-03-07 06:32:00,
2013-03-06 23:42:00,28.4,19.9,29.88,West,260,0.0,2.0,70,0.00,,,0.00,Wunderground v.1.13,2013-03-07 06:42:00,
2013-03-06 23:52:00,28.3,20.1,29.89,SW,232,2.0,2.0,71,0.00,,,0.00,Wunderground v.1.13,2013-03-07 06:52:00,